Welcome to the New NWS' Forecast!
Most changes are behind the scenes, but click here for differences you might notice.

Regional Weather Roundup (RWR)

Issued by San Diego, CA (SGX)

                            
000
ASUS46 KSGX 200011
RWRSGX

SAN DIEGO HOURLY WEATHER ROUNDUP
NATIONAL WEATHER SERVICE SAN DIEGO CA
400 PM PST MON NOV 19 2018

NOTE: "FAIR" INDICATES FEW OR NO CLOUDS BELOW 12,000 FEET WITH NO 
SIGNIFICANT WEATHER AND/OR OBSTRUCTIONS TO VISIBILITY.

CAZ042-043-060-061-PZZ750-775-200100-

GREATER SAN DIEGO AREA
  
CITY           SKY/WX    TMP DP  RH WIND       PRES   REMARKS
SAN DIEGO AP   CLOUDY    67  58  72 W7        30.02R                  
NATIONAL CITY    N/A     65  59  80 SW9       30.00S                  
CHULA VISTA      N/A     65  59  81 W6        29.91S                  
IMPERIAL BEACH CLOUDY    64  58  80 W5        30.01R                  
BROWN FIELD    CLOUDY    63  55  75 W6        30.00R                  
MIRAMAR MCAS   CLOUDY    68  53  58 W7        29.99S                  
MONTGOMERY FLD CLOUDY    64  58  80 SW7       30.00R                  
GILLESPIE FLD  CLEAR     68  46  45 SW5       29.99S                  

$$

NORTH SAN DIEGO COUNTY
  
CITY           SKY/WX    TMP DP  RH WIND       PRES   REMARKS
CAMP PENDLETON CLOUDY    64  56  75 S9        29.99R                  
OCEANSIDE AP   CLOUDY    64  57  78 W6        29.98S                  
OCEANSIDE HBR    N/A     64  60  88 CALM      30.01S                  
VISTA            N/A     66  51  57 CALM      29.97S                  
CARLSBAD       CLOUDY    64  51  62 W3        29.99S                  
DEL MAR          N/A     64  54  70 SW2       30.02R                  
LA JOLLA SCRIP   N/A     63  59  87 SW2       30.00R                  
FALLBROOK      FAIR      64  39  39 CALM      30.00S                  
ESCONDIDO        N/A     68  40  35 SW3       30.00R                  
SAN MARCOS       N/A     67  53  62 CALM      30.03S                  
POWAY            N/A     67  46  46 CALM      30.02R                  

$$

EAST SAN DIEGO COUNTY
  
CITY           SKY/WX    TMP DP  RH WIND       PRES   REMARKS
RAMONA         CLOUDY    64  37  36 W7        30.00S                  
LA MESA          N/A     65  51  60 CALM      29.94S                  
JAMUL            N/A     64  46  51 CALM      30.00R                  
MT. LAGUNA OBS   N/A     47  14  26 E5        30.02F                  
CAMPO            N/A     62  20  19 E16       30.00S                  

$$

ORANGE COUNTY AND THE LOS ANGELES BASIN
  
CITY           SKY/WX    TMP DP  RH WIND       PRES   REMARKS
JOHN WAYNE AP  CLOUDY    68  47  46 CALM      29.98F                  
LAKE FOREST FR   N/A     64  49  59 W2        29.88S                  
HUNTINGTON BCH   N/A     65  61  87 W1        29.99F                  
FULLERTON      CLOUDY    69  42  37 CALM      29.97F                  
LONG BEACH     CLOUDY    69  48  47 CALM      29.98F                  
L.A. AP        CLOUDY    66  56  70 NW5       29.98F HAZE             
L.A. DOWNTOWN  CLOUDY    67  51  56 CALM      29.98S                  

$$

THE INLAND EMPIRE
  
CITY           SKY/WX    TMP DP  RH WIND       PRES   REMARKS
CORONA         CLOUDY    68  46  45 W6        29.99R                  
CHINO          CLOUDY    70  43  37 W3        29.99S                  
ONTARIO        CLOUDY    71  34  25 W9        29.98F                  
SAN BERNARDINO CLOUDY    75  21  13 CALM      29.99F                  
RIVERSIDE AP   CLOUDY    73  21  14 CALM      29.98S                  
MORENO VALLEY    N/A     69  31  24 E8        28.12S                  
MARCH ARB      CLOUDY    70  20  15 NE6       30.00R                  
HORSETHIEF CYN   N/A     71  24  17 CALM      29.98F                  
PERRIS           N/A     69  30  23 E5          N/A                   
HEMET EAST       N/A     68  18  15 S5        29.93F                  
FRENCH VALLEY  FAIR      66  36  32 S5        30.01R                  
TEMECULA         N/A     69  39  34 SW3       30.00R                  

$$

SAN BERNARDINO AND RIVERSIDE COUNTY MOUNTAINS
  
CITY           SKY/WX    TMP DP  RH WIND       PRES   REMARKS
BIG BEAR AP    CLOUDY    46  18  31 NE5       30.16S                  
ANGELUS OAKS     N/A     51  23  32 CALM      29.98F                  

$$

SOUTHERN DESERT INCLUDING THE COACHELLA VALLEY
  
CITY           SKY/WX    TMP DP  RH WIND       PRES   REMARKS
PALM SPRINGS   CLOUDY    73  26  17 CALM      30.03F                  
THOUSAND PALMS   N/A     71  30  21 E1        29.99F                  
PALM DESERT      N/A     73  34  23 CALM      30.60S                  
THERMAL        CLOUDY    72  36  26 CALM      29.99F                  
BORREGO AP     FAIR      72  19  14 SE5       30.02F                  
BLYTHE         PTCLDY    72  25  17 NE5       30.03S                  
IMPERIAL AP    MOCLDY    73  31  21 NW3       30.00F                  
EL CENTRO NAS  MOCLDY    73  27  18 CALM      30.02F                  
YUMA AZ        PTCLDY    74  27  17 N8        30.00S                  
MEXICALI       MOCLDY    72  25  17 NW7       30.01F                  

$$

UPPER DESERT
  
CITY           SKY/WX    TMP DP  RH WIND       PRES   REMARKS
VICTORVILLE AP CLEAR    N/A N/A N/A N9        30.09S                  
APPLE VALLEY     N/A     61  24  24 S2        30.16S                  
PALMDALE       CLOUDY    61  15  16 NE8       30.09S                  
LANCASTER      CLOUDY    60  16  18 E6        30.09S                  
EDWARDS AFB    CLOUDY    61  17  18 NE6       30.07S                  
DAGGETT        CLOUDY    61  15  16 NE3       30.09F                  
29 PALMS N     MOCLDY    63  19  18 CALM      30.14                   
NEEDLES        MOCLDY    69  20  15 N8        30.07R                  

$$

REGIONAL REPORTS
  
CITY           SKY/WX    TMP DP  RH WIND       PRES   REMARKS
SANTA BARBARA  CLOUDY    64  57  78 SE6       29.97F HAZE             
SANDBERG       CLOUDY    53  12  19 E17G28    30.11S                  
LAS VEGAS NV   MOCLDY    62  12  14 CALM      30.10F                  
PHOENIX AZ     MOCLDY    73  21  14 NW6       30.00S                  
TIJUANA        CLOUDY    63  57  82 CALM      30.02S                  

$$

OFFSHORE ISLANDS
  
CITY           SKY/WX    TMP DP  RH WIND       PRES   REMARKS
CATALINA ARPT  CLOUDY    61  53  75 S5        30.01F                  
SAN CLEMENTE I MOCLDY    65  56  72 W6        30.00F                  
SAN NICOLAS IS MOCLDY    63  54  72 E6        29.98F                  

$$

MARINE AND OFFSHORE BUOY REPORTS
  
STATION/POSITION SKY/WX   TEMP    WIND        PRES    VSBY  SWELL
                          AIR SEA DIR/SP/G                  HT/PER/DIR
                          (F)     (DEG/KT/KT) (MB)    (MI)  (FT/S/D)
TANNER BANKS               63 66              1015.1
S CLEMENTE BASIN           64 67  270/  4/  4 1015.5F         3/270/13
SAN NICOLAS IS.               66                N/A           3/280/13
SO. S. ROSA ISLA           61 63  150/  6/  6 1014.9F         3/280/13
W. S. BARBARA CH                              1014.7          3/280/13
M. S. BARBARA CH           64 65   80/  6/  8 1015.5
S. MONICA BASIN            64 66  200/  2/  4 1015.1
S PEDRO CHANNEL               66                N/A           2/260/13
OCEANSIDE OFFSHR              65                N/A           2/220/13
TORREY PINES OTR              66                N/A           3/270/13
SAN DIEGO BAY                                 1015.5R
IMPERIAL BEACH                65                N/A           2/270/13
POINT LOMA SOUTH              66                N/A           2/270/13

$$